Terug naar catalogus

FENGYUN 1C DEB

ActiefPO
NORAD 30018·DEBRIS·🇨🇳 China

Gelanceerd May 10, 1999 vanaf Taiyuan Satellite Launch Center

Loading…

Volgende Passages (komende 24 uur)

TLE

VersSource: Space-Track

Epoch: Sep 14, 2026, 06:08 UTC

1 30018U 99025MT  26257.25610339  .00002290  00000-0  31223-3 0  9995
2 30018  98.7556   6.8924 0112737  50.4583 340.4757 14.75497758 44970

Volg FENGYUN 1C DEB in realtime met AllMySat

Download on the App Store